Location: Brahman Valley
(40.6513°N, 111.8855°W)
Time: 08:51:31
(UTC+00:00)

Tiros 1 despin weight - Pass Details

Date: 16 May 2021
Orbit: 594 x 641 km, 48.2° (Epoch: 22 June)

Event Time Altitude Azimuth Distance (km) Brightness Sun altitude
Rises 07:03:19 0° 298° (WNW) 2,943 ? -30.0°
Reaches altitude 10° 07:05:43 10° 304° (NW) 2,033 ? -30.0°
Enters shadow 07:09:03 39° 335° (NNW) 958 ? -30.1°
Maximum altitude 07:10:17 50° 20° (NNE) 816 - -30.1°
Drops below altitude 10° 07:14:49 10° 96° (E) 2,021 - -30.1°
Sets 07:17:12 0° 102° (ESE) 2,923 - -30.2°
